Time,TemperatureF,DewpointF,PressureIn,WindDirection,WindDirectionDegrees,WindSpeedMPH,WindSpeedGustMPH,Humidity,HourlyPrecipIn,Conditions,Clouds,dailyrainin,SoftwareType,DateUTC
2013-03-16 00:07:00,53.1,46.0,30.10,SW,219,2.0,4.0,76,0.00,,,0.00,weatherlink.com 1.10,2013-03-16 05:07:00,
2013-03-16 00:22:00,52.4,46.0,30.10,WNW,302,0.0,2.0,78,0.00,,,0.00,weatherlink.com 1.10,2013-03-16 05:22:00,
2013-03-16 00:37:00,50.8,45.0,30.10,ESE,108,0.0,1.0,81,0.00,,,0.00,weatherlink.com 1.10,2013-03-16 05:37:00,
2013-03-16 00:52:00,49.8,45.0,30.09,South,190,0.0,0.0,84,0.00,,,0.00,weatherlink.com 1.10,2013-03-16 05:52:00,
2013-03-16 01:07:00,49.7,46.0,30.09,South,177,0.0,1.0,86,0.00,,,0.00,weatherlink.com 1.10,2013-03-16 06:07:00,
2013-03-16 01:22:00,49.1,45.0,30.09,SW,220,0.0,2.0,87,0.00,,,0.00,weatherlink.com 1.10,2013-03-16 06:22:00,
2013-03-16 01:37:00,48.7,45.0,30.09,SSW,212,0.0,1.0,88,0.00,,,0.00,weatherlink.com 1.10,2013-03-16 06:37:00,
2013-03-16 01:52:00,49.0,46.0,30.09,SSE,162,0.0,2.0,89,0.00,,,0.00,weatherlink.com 1.10,2013-03-16 06:52:00,
2013-03-16 02:07:00,49.5,47.0,30.08,South,170,1.0,1.0,90,0.00,,,0.00,weatherlink.com 1.10,2013-03-16 07:07:00,
2013-03-16 02:22:00,49.8,47.0,30.08,WSW,242,0.0,3.0,89,0.00,,,0.00,weatherlink.com 1.10,2013-03-16 07:22:00,
2013-03-16 02:37:00,49.6,47.0,30.07,SW,225,0.0,2.0,91,0.00,,,0.00,weatherlink.com 1.10,2013-03-16 07:37:00,
2013-03-16 02:52:00,49.6,47.0,30.07,SSW,197,0.0,1.0,92,0.00,,,0.00,weatherlink.com 1.10,2013-03-16 07:52:00,
2013-03-16 03:07:00,49.7,48.0,30.07,South,184,0.0,1.0,92,0.00,,,0.00,weatherlink.com 1.10,2013-03-16 08:07:00,
2013-03-16 03:22:00,49.5,48.0,30.07,SSE,151,0.0,2.0,93,0.00,,,0.00,weatherlink.com 1.10,2013-03-16 08:22:00,
2013-03-16 03:37:00,49.3,48.0,30.07,WSW,256,0.0,1.0,94,0.00,,,0.00,weatherlink.com 1.10,2013-03-16 08:37:00,
2013-03-16 03:52:00,48.9,48.0,30.06,SE,139,0.0,0.0,95,0.00,,,0.00,weatherlink.com 1.10,2013-03-16 08:52:00,
2013-03-16 04:07:00,48.7,47.0,30.07,SE,138,0.0,0.0,95,0.00,,,0.00,weatherlink.com 1.10,2013-03-16 09:07:00,
2013-03-16 04:22:00,48.6,48.0,30.07,SE,139,0.0,0.0,96,0.00,,,0.00,weatherlink.com 1.10,2013-03-16 09:22:00,
2013-03-16 04:37:00,48.6,48.0,30.07,SW,225,0.0,2.0,96,0.00,,,0.00,weatherlink.com 1.10,2013-03-16 09:37:00,
2013-03-16 04:52:00,48.7,48.0,30.07,SW,225,0.0,1.0,97,0.00,,,0.00,weatherlink.com 1.10,2013-03-16 09:52:00,
2013-03-16 05:07:00,48.4,47.0,30.06,SSW,211,0.0,0.0,96,0.00,,,0.00,weatherlink.com 1.10,2013-03-16 10:07:00,
2013-03-16 05:22:00,48.3,48.0,30.07,SSW,195,0.0,1.0,97,0.00,,,0.00,weatherlink.com 1.10,2013-03-16 10:22:00,
2013-03-16 05:37:00,48.0,47.0,30.07,SSW,194,0.0,0.0,97,0.00,,,0.00,weatherlink.com 1.10,2013-03-16 10:37:00,
2013-03-16 05:52:00,47.5,47.0,30.07,South,187,0.0,0.0,97,0.00,,,0.00,weatherlink.com 1.10,2013-03-16 10:52:00,
2013-03-16 06:07:00,47.6,47.0,30.07,South,189,0.0,0.0,98,0.00,,,0.00,weatherlink.com 1.10,2013-03-16 11:07:00,
2013-03-16 06:22:00,47.6,47.0,30.08,SSE,160,0.0,1.0,98,0.00,,,0.00,weatherlink.com 1.10,2013-03-16 11:22:00,
2013-03-16 06:37:00,47.4,47.0,30.08,SSE,160,0.0,0.0,98,0.00,,,0.00,weatherlink.com 1.10,2013-03-16 11:37:00,
2013-03-16 06:52:00,47.8,47.0,30.08,SSE,160,0.0,0.0,98,0.00,,,0.00,weatherlink.com 1.10,2013-03-16 11:52:00,
2013-03-16 07:07:00,47.6,47.0,30.08,SSE,161,0.0,0.0,98,0.00,,,0.00,weatherlink.com 1.10,2013-03-16 12:07:00,
2013-03-16 07:22:00,47.8,47.0,30.09,SSE,160,0.0,1.0,98,0.00,,,0.00,weatherlink.com 1.10,2013-03-16 12:22:00,
2013-03-16 07:37:00,50.5,50.0,30.09,ESE,121,0.0,1.0,98,0.00,,,0.00,weatherlink.com 1.10,2013-03-16 12:37:00,
2013-03-16 07:52:00,52.4,51.0,30.09,SSW,200,0.0,1.0,94,0.00,,,0.00,weatherlink.com 1.10,2013-03-16 12:52:00,
2013-03-16 08:07:00,54.6,52.0,30.09,SSE,152,3.0,3.0,90,0.00,,,0.00,weatherlink.com 1.10,2013-03-16 13:07:00,
2013-03-16 08:22:00,56.4,53.0,30.10,SSE,150,0.0,5.0,87,0.00,,,0.00,weatherlink.com 1.10,2013-03-16 13:22:00,
2013-03-16 08:37:00,58.5,53.0,30.10,SSW,207,0.0,5.0,83,0.00,,,0.00,weatherlink.com 1.10,2013-03-16 13:37:00,
2013-03-16 08:53:00,60.0,53.0,30.10,SSE,159,2.0,7.0,79,0.00,,,0.00,weatherlink.com 1.10,2013-03-16 13:53:00,
2013-03-16 09:08:00,61.7,53.0,30.10,SW,231,1.0,6.0,74,0.00,,,0.00,weatherlink.com 1.10,2013-03-16 14:08:00,
2013-03-16 09:23:00,62.9,53.0,30.10,West,269,3.0,6.0,71,0.00,,,0.00,weatherlink.com 1.10,2013-03-16 14:23:00,
2013-03-16 09:38:00,63.6,53.0,30.10,NW,319,1.0,6.0,69,0.00,,,0.00,weatherlink.com 1.10,2013-03-16 14:38:00,
2013-03-16 09:53:00,64.4,54.0,30.10,NW,312,2.0,5.0,70,0.00,,,0.00,weatherlink.com 1.10,2013-03-16 14:53:00,
2013-03-16 10:08:00,66.0,54.0,30.10,North,8,1.0,7.0,65,0.00,,,0.00,weatherlink.com 1.10,2013-03-16 15:08:00,
2013-03-16 10:23:00,67.2,53.0,30.09,SSE,153,3.0,7.0,61,0.00,,,0.00,weatherlink.com 1.10,2013-03-16 15:23:00,
2013-03-16 10:38:00,69.7,53.0,30.09,NNE,18,2.0,10.0,56,0.00,,,0.00,weatherlink.com 1.10,2013-03-16 15:38:00,
2013-03-16 10:53:00,70.7,51.0,30.09,WSW,242,3.0,9.0,50,0.00,,,0.00,weatherlink.com 1.10,2013-03-16 15:53:00,
2013-03-16 11:08:00,71.2,50.0,30.09,WSW,254,0.0,10.0,47,0.00,,,0.00,weatherlink.com 1.10,2013-03-16 16:08:00,
2013-03-16 11:23:00,71.9,50.0,30.08,SW,221,2.0,12.0,46,0.00,,,0.00,weatherlink.com 1.10,2013-03-16 16:23:00,
2013-03-16 11:38:00,72.0,51.0,30.08,ENE,76,0.0,10.0,47,0.00,,,0.00,weatherlink.com 1.10,2013-03-16 16:38:00,
2013-03-16 11:53:00,73.0,49.0,30.08,West,259,1.0,7.0,43,0.00,,,0.00,weatherlink.com 1.10,2013-03-16 16:53:00,
2013-03-16 12:08:00,74.0,50.0,30.07,WSW,245,5.0,9.0,43,0.00,,,0.00,weatherlink.com 1.10,2013-03-16 17:08:00,
2013-03-16 12:23:00,74.9,51.0,30.07,ENE,65,4.0,8.0,43,0.00,,,0.00,weatherlink.com 1.10,2013-03-16 17:23:00,
2013-03-16 12:38:00,75.1,51.0,30.06,WSW,245,2.0,9.0,43,0.00,,,0.00,weatherlink.com 1.10,2013-03-16 17:38:00,
2013-03-16 12:54:00,75.8,49.0,30.06,ENE,76,0.0,9.0,39,0.00,,,0.00,weatherlink.com 1.10,2013-03-16 17:54:00,
2013-03-16 13:09:00,76.1,50.0,30.05,SW,224,3.0,10.0,40,0.00,,,0.00,weatherlink.com 1.10,2013-03-16 18:09:00,
2013-03-16 13:24:00,76.3,49.0,30.04,SSE,149,2.0,11.0,38,0.00,,,0.00,weatherlink.com 1.10,2013-03-16 18:24:00,
2013-03-16 13:39:00,76.4,50.0,30.04,ENE,63,3.0,11.0,39,0.00,,,0.00,weatherlink.com 1.10,2013-03-16 18:39:00,
2013-03-16 13:54:00,76.8,49.0,30.03,South,190,5.0,12.0,38,0.00,,,0.00,weatherlink.com 1.10,2013-03-16 18:54:00,
2013-03-16 14:09:00,77.1,50.0,30.02,West,261,4.0,10.0,38,0.00,,,0.00,weatherlink.com 1.10,2013-03-16 19:09:00,
2013-03-16 14:24:00,77.6,49.0,30.01,SSW,210,4.0,10.0,37,0.00,,,0.00,weatherlink.com 1.10,2013-03-16 19:24:00,
2013-03-16 14:39:00,77.5,50.0,30.00,SSE,160,2.0,12.0,38,0.00,,,0.00,weatherlink.com 1.10,2013-03-16 19:39:00,
2013-03-16 14:54:00,77.6,50.0,29.99,WSW,256,3.0,10.0,38,0.00,,,0.00,weatherlink.com 1.10,2013-03-16 19:54:00,
2013-03-16 15:09:00,77.6,50.0,29.98,ESE,117,4.0,11.0,38,0.00,,,0.00,weatherlink.com 1.10,2013-03-16 20:09:00,
2013-03-16 15:39:00,77.2,50.0,29.98,ENE,71,0.0,13.0,38,0.00,,,0.00,weatherlink.com 1.10,2013-03-16 20:39:00,
2013-03-16 15:54:00,78.0,50.0,29.97,SSW,194,1.0,11.0,37,0.00,,,0.00,weatherlink.com 1.10,2013-03-16 20:54:00,
2013-03-16 16:09:00,78.1,48.0,29.97,SSE,155,1.0,8.0,35,0.00,,,0.00,weatherlink.com 1.10,2013-03-16 21:09:00,
2013-03-16 16:24:00,77.8,49.0,29.97,WSW,242,1.0,8.0,36,0.00,,,0.00,weatherlink.com 1.10,2013-03-16 21:24:00,
2013-03-16 16:39:00,77.1,48.0,29.96,SE,128,3.0,9.0,36,0.00,,,0.00,weatherlink.com 1.10,2013-03-16 21:39:00,
2013-03-16 16:54:00,76.9,49.0,29.96,ESE,103,6.0,10.0,38,0.00,,,0.00,weatherlink.com 1.10,2013-03-16 21:54:00,
2013-03-16 17:09:00,76.6,50.0,29.96,SSE,156,1.0,6.0,39,0.00,,,0.00,weatherlink.com 1.10,2013-03-16 22:09:00,
2013-03-16 17:24:00,75.7,49.0,29.96,SW,219,2.0,10.0,39,0.00,,,0.00,weatherlink.com 1.10,2013-03-16 22:24:00,
2013-03-16 17:39:00,75.0,50.0,29.96,SW,224,1.0,7.0,41,0.00,,,0.00,weatherlink.com 1.10,2013-03-16 22:39:00,
2013-03-16 17:54:00,73.7,50.0,29.95,SW,236,6.0,8.0,44,0.00,,,0.00,weatherlink.com 1.10,2013-03-16 22:54:00,
2013-03-16 18:09:00,72.3,50.0,29.96,SE,136,0.0,10.0,45,0.00,,,0.00,weatherlink.com 1.10,2013-03-16 23:09:00,
2013-03-16 18:24:00,71.2,50.0,29.96,East,91,1.0,7.0,48,0.00,,,0.00,weatherlink.com 1.10,2013-03-16 23:24:00,
2013-03-16 18:39:00,70.2,51.0,29.97,SW,218,6.0,8.0,50,0.00,,,0.00,weatherlink.com 1.10,2013-03-16 23:39:00,
2013-03-16 18:54:00,69.2,51.0,29.97,WSW,248,1.0,6.0,52,0.00,,,0.00,weatherlink.com 1.10,2013-03-16 23:54:00,
2013-03-16 19:09:00,68.1,51.0,29.97,WSW,248,1.0,5.0,55,0.00,,,0.00,weatherlink.com 1.10,2013-03-17 00:09:00,
2013-03-16 19:24:00,67.3,51.0,29.98,WSW,257,1.0,6.0,57,0.00,,,0.00,weatherlink.com 1.10,2013-03-17 00:24:00,
2013-03-16 19:39:00,66.2,51.0,29.98,South,181,0.0,4.0,59,0.00,,,0.00,weatherlink.com 1.10,2013-03-17 00:39:00,
2013-03-16 19:54:00,65.0,52.0,29.98,SSE,148,0.0,2.0,62,0.00,,,0.00,weatherlink.com 1.10,2013-03-17 00:54:00,
2013-03-16 20:09:00,64.0,51.0,29.99,SE,132,0.0,2.0,63,0.00,,,0.00,weatherlink.com 1.10,2013-03-17 01:09:00,
2013-03-16 20:24:00,63.4,50.0,30.00,NNW,329,1.0,4.0,63,0.00,,,0.00,weatherlink.com 1.10,2013-03-17 01:24:00,
2013-03-16 20:39:00,62.9,50.0,30.00,West,262,0.0,1.0,64,0.00,,,0.00,weatherlink.com 1.10,2013-03-17 01:39:00,
2013-03-16 20:54:00,62.1,51.0,30.01,South,186,0.0,1.0,66,0.00,,,0.00,weatherlink.com 1.10,2013-03-17 01:54:00,
2013-03-16 21:09:00,61.1,50.0,30.01,SSE,152,0.0,1.0,68,0.00,,,0.00,weatherlink.com 1.10,2013-03-17 02:09:00,
2013-03-16 21:24:00,60.1,50.0,30.01,SSE,150,0.0,1.0,70,0.00,,,0.00,weatherlink.com 1.10,2013-03-17 02:24:00,
2013-03-16 21:39:00,59.1,50.0,30.02,SE,138,0.0,1.0,73,0.00,,,0.00,weatherlink.com 1.10,2013-03-17 02:39:00,
2013-03-16 21:54:00,58.8,51.0,30.02,ESE,107,0.0,1.0,75,0.00,,,0.00,weatherlink.com 1.10,2013-03-17 02:54:00,
2013-03-16 22:09:00,58.2,51.0,30.02,SE,125,1.0,2.0,78,0.00,,,0.00,weatherlink.com 1.10,2013-03-17 03:09:00,
2013-03-16 22:24:00,58.1,52.0,30.02,East,79,0.0,2.0,80,0.00,,,0.00,weatherlink.com 1.10,2013-03-17 03:24:00,
2013-03-16 22:39:00,57.4,52.0,30.02,ESE,120,0.0,1.0,82,0.00,,,0.00,weatherlink.com 1.10,2013-03-17 03:39:00,
2013-03-16 22:55:00,57.4,53.0,30.02,East,79,0.0,1.0,84,0.00,,,0.00,weatherlink.com 1.10,2013-03-17 03:55:00,
2013-03-16 23:09:00,56.6,52.0,30.02,ESE,108,0.0,0.0,85,0.00,,,0.00,weatherlink.com 1.10,2013-03-17 04:09:00,
2013-03-16 23:24:00,56.4,53.0,30.02,ENE,70,0.0,4.0,89,0.00,,,0.00,weatherlink.com 1.10,2013-03-17 04:24:00,
2013-03-16 23:39:00,56.7,54.0,30.02,ENE,61,0.0,2.0,89,0.00,,,0.00,weatherlink.com 1.10,2013-03-17 04:39:00,
2013-03-16 23:54:00,56.6,54.0,30.02,ESE,102,0.0,1.0,89,0.00,,,0.00,weatherlink.com 1.10,2013-03-17 04:54:00,